EXS3UH GCLP-EGBB

Flight info

Callsign EXS3UH
Flight time 4h 2m
Altitude 37000
Route BIMBO DCT DEGUN DCT MANOX/M078F370 T13 OMOKO DCT GUNSO DCT GAPLI/N0446F370 DCT PEWBI DCT INFEC DCT ICOSA DCT ZIPWE L180 FIGZI
Aircraft A21N/M-SDE2E3FGHIRWXY/LB1

Departure

Time 2026-04-29 20:27
Airport Gran Canaria Airport (GCLP)

Arrival

Time 2026-04-30 00:29
Airport Birmingham Airport (EGBB)
Time Latitude Longitude Altitude Speed Heading
2026-04-29 20:05 27.93606 -15.38928 90 ft 0 kts 293°
2026-04-29 20:06 27.93606 -15.38925 92 ft 0 kts 291°
2026-04-29 20:19 27.93604 -15.38922 90 ft 3 kts 291°
2026-04-29 20:19 27.93594 -15.38894 89 ft 4 kts 291°
2026-04-29 20:19 27.93586 -15.38870 90 ft 4 kts 301°
2026-04-29 20:20 27.93569 -15.38855 90 ft 4 kts 355°
2026-04-29 20:20 27.93543 -15.38859 89 ft 3 kts 20°
2026-04-29 20:20 27.93540 -15.38860 89 ft 0 kts 21°
2026-04-29 20:23 27.93559 -15.38852 90 ft 7 kts 21°
2026-04-29 20:23 27.93613 -15.38829 91 ft 10 kts 21°
2026-04-29 20:24 27.93690 -15.38796 89 ft 13 kts 21°
2026-04-29 20:24 27.93784 -15.38755 91 ft 16 kts 21°
2026-04-29 20:24 27.93895 -15.38705 89 ft 19 kts 21°
2026-04-29 20:24 27.94025 -15.38647 87 ft 21 kts 21°
2026-04-29 20:25 27.94074 -15.38573 82 ft 13 kts 102°
2026-04-29 20:25 27.94065 -15.38469 67 ft 15 kts 40°
2026-04-29 20:25 27.94167 -15.38420 67 ft 17 kts 22°
2026-04-29 20:25 27.94280 -15.38368 58 ft 18 kts 21°
2026-04-29 20:26 27.94394 -15.38301 55 ft 19 kts 47°
2026-04-29 20:26 27.94464 -15.38203 52 ft 14 kts 52°
2026-04-29 20:26 27.94436 -15.38113 50 ft 17 kts 177°
2026-04-29 20:26 27.94356 -15.38141 49 ft 10 kts 202°
2026-04-29 20:27 27.94153 -15.38231 53 ft 68 kts 200°
2026-04-29 20:27 27.93752 -15.38405 65 ft 117 kts 201°
2026-04-29 20:27 27.92440 -15.38975 350 ft 166 kts 199°
2026-04-29 20:27 27.91380 -15.39434 1160 ft 165 kts 203°
2026-04-29 20:28 27.90236 -15.39997 1623 ft 194 kts 201°
2026-04-29 20:28 27.88884 -15.40603 2150 ft 222 kts 201°
2026-04-29 20:28 27.87346 -15.41279 2872 ft 249 kts 201°
2026-04-29 20:28 27.85690 -15.42004 3919 ft 259 kts 201°
2026-04-29 20:29 27.83989 -15.42748 5098 ft 265 kts 201°
2026-04-29 20:29 27.82250 -15.43501 6288 ft 270 kts 200°
2026-04-29 20:29 27.80383 -15.43726 7437 ft 276 kts 173°
2026-04-29 20:29 27.78563 -15.42992 8576 ft 283 kts 150°
2026-04-29 20:30 27.77092 -15.41478 9691 ft 293 kts 128°
2026-04-29 20:30 27.76235 -15.39386 10570 ft 310 kts 104°
2026-04-29 20:30 27.76204 -15.36857 11152 ft 337 kts 79°
2026-04-29 20:30 27.77109 -15.34353 11797 ft 355 kts 56°
2026-04-29 20:31 27.78783 -15.32339 12719 ft 361 kts 36°
2026-04-29 20:31 27.80797 -15.30561 13702 ft 368 kts 44°
2026-04-29 20:31 27.82309 -15.28209 14606 ft 376 kts 64°
2026-04-29 20:31 27.83340 -15.25472 15506 ft 382 kts 67°
2026-04-29 20:32 27.84581 -15.22782 16370 ft 389 kts 58°
2026-04-29 20:32 27.86187 -15.20296 17203 ft 395 kts 49°
2026-04-29 20:32 27.88103 -15.18039 18020 ft 401 kts 41°
2026-04-29 20:32 27.90257 -15.16016 18805 ft 405 kts 35°
2026-04-29 20:33 27.92611 -15.14232 19567 ft 410 kts 28°
2026-04-29 20:33 27.95141 -15.12702 20308 ft 414 kts 22°
2026-04-29 20:33 27.97809 -15.11447 21034 ft 417 kts 16°
2026-04-29 20:33 28.00601 -15.10490 21746 ft 420 kts 10°
2026-04-29 20:34 28.03472 -15.09854 22473 ft 422 kts
2026-04-29 20:34 28.06396 -15.09541 23184 ft 423 kts 358°
2026-04-29 20:34 28.09328 -15.09563 23843 ft 424 kts 352°
2026-04-29 20:34 28.12286 -15.09919 24481 ft 425 kts 346°
2026-04-29 20:35 28.15185 -15.10611 25085 ft 426 kts 340°
2026-04-29 20:35 28.17981 -15.11618 25654 ft 427 kts 334°
2026-04-29 20:35 28.20708 -15.12953 26211 ft 427 kts 328°
2026-04-29 20:35 28.23304 -15.14587 26751 ft 428 kts 322°
2026-04-29 20:36 28.25754 -15.16520 27271 ft 428 kts 316°
2026-04-29 20:36 28.28007 -15.18713 27774 ft 427 kts 310°
2026-04-29 20:36 28.30057 -15.21157 28259 ft 426 kts 304°
2026-04-29 20:36 28.31878 -15.23806 28724 ft 426 kts 299°
2026-04-29 20:37 28.33558 -15.26592 29174 ft 431 kts 301°
2026-04-29 20:37 28.35651 -15.29099 29617 ft 445 kts 314°
2026-04-29 20:37 28.38188 -15.31179 30065 ft 452 kts 318°
2026-04-29 20:37 28.40558 -15.33487 30488 ft 448 kts 310°
2026-04-29 20:38 28.42795 -15.35956 30906 ft 450 kts 309°
2026-04-29 20:38 28.45009 -15.38418 31318 ft 453 kts 309°
2026-04-29 20:38 28.47277 -15.40924 31737 ft 455 kts 309°
2026-04-29 20:38 28.49558 -15.43438 32129 ft 457 kts 309°
2026-04-29 20:39 28.51844 -15.45961 32490 ft 459 kts 310°
2026-04-29 20:39 28.54183 -15.48471 32854 ft 464 kts 313°
2026-04-29 20:39 28.56834 -15.50614 33239 ft 473 kts 324°
2026-04-29 20:39 28.59888 -15.52127 33660 ft 483 kts 336°
2026-04-29 20:40 28.63202 -15.52936 34078 ft 488 kts 346°
2026-04-29 20:40 28.66558 -15.53487 34498 ft 488 kts 346°
2026-04-29 20:40 28.69916 -15.54028 34869 ft 487 kts 346°
2026-04-29 20:40 28.73222 -15.54579 35238 ft 486 kts 346°
2026-04-29 20:41 28.76571 -15.55156 35576 ft 485 kts 346°
2026-04-29 20:41 28.79910 -15.55744 35908 ft 485 kts 345°
2026-04-29 20:41 28.83248 -15.56331 36218 ft 485 kts 345°
2026-04-29 20:41 28.86597 -15.56919 36509 ft 485 kts 345°
2026-04-29 20:42 28.89942 -15.57504 36808 ft 484 kts 345°
2026-04-29 20:42 28.93231 -15.58077 37162 ft 482 kts 345°
2026-04-29 20:42 28.96542 -15.58654 37525 ft 479 kts 345°
2026-04-29 20:42 28.99820 -15.59228 37857 ft 476 kts 345°
2026-04-29 20:43 29.03095 -15.59803 38039 ft 477 kts 345°
2026-04-29 20:43 29.06375 -15.60381 38061 ft 477 kts 345°
2026-04-29 20:43 29.12939 -15.61540 38040 ft 476 kts 345°
2026-04-29 20:44 29.19485 -15.62694 38032 ft 476 kts 345°
2026-04-29 20:44 29.26003 -15.63842 38040 ft 476 kts 346°
2026-04-29 20:45 29.32560 -15.64993 38040 ft 476 kts 345°
2026-04-29 20:45 29.39107 -15.66160 38040 ft 476 kts 345°
2026-04-29 20:46 29.45661 -15.67339 38041 ft 476 kts 346°
2026-04-29 20:46 29.52217 -15.68516 38040 ft 476 kts 346°
2026-04-29 20:47 29.58785 -15.69697 38040 ft 476 kts 346°
2026-04-29 20:47 29.64240 -15.70681 38040 ft 476 kts 346°
2026-04-29 20:48 29.71858 -15.72058 38041 ft 477 kts 346°
2026-04-29 20:48 29.78410 -15.73246 38041 ft 476 kts 346°
2026-04-29 20:49 29.84954 -15.74427 38032 ft 476 kts 346°
2026-04-29 20:49 29.91485 -15.75614 38030 ft 476 kts 346°
2026-04-29 20:50 29.98040 -15.76798 38029 ft 476 kts 346°
2026-04-29 20:50 30.04594 -15.77987 38031 ft 476 kts 346°
2026-04-29 20:51 30.11148 -15.79170 38030 ft 476 kts 346°
2026-04-29 20:51 30.17694 -15.80368 38030 ft 476 kts 346°
2026-04-29 20:52 30.24201 -15.81557 38029 ft 476 kts 346°
2026-04-29 20:52 30.30751 -15.82755 38030 ft 476 kts 346°
2026-04-29 20:53 30.37295 -15.83952 38029 ft 476 kts 346°
2026-04-29 20:53 30.43843 -15.85145 38030 ft 476 kts 346°
2026-04-29 20:54 30.53656 -15.86945 38020 ft 476 kts 346°
2026-04-29 20:55 30.60195 -15.88150 38020 ft 476 kts 346°
2026-04-29 20:55 30.66730 -15.89355 38021 ft 475 kts 346°
2026-04-29 20:56 30.73225 -15.90542 38020 ft 475 kts 346°
2026-04-29 20:56 30.79747 -15.91733 38021 ft 475 kts 347°
2026-04-29 20:57 30.86291 -15.92923 38022 ft 475 kts 347°
2026-04-29 20:57 30.91753 -15.93932 38020 ft 475 kts 347°
2026-04-29 20:58 30.98296 -15.95142 38021 ft 475 kts 347°
2026-04-29 20:58 31.04816 -15.96351 38011 ft 474 kts 347°
2026-04-29 20:59 31.11294 -15.97551 38010 ft 474 kts 347°
2026-04-29 20:59 31.17815 -15.98762 38010 ft 474 kts 347°
2026-04-29 21:00 31.24340 -15.99979 38012 ft 475 kts 347°
2026-04-29 21:00 31.30866 -16.01194 38010 ft 474 kts 347°
2026-04-29 21:01 31.37383 -16.02407 38009 ft 474 kts 347°
2026-04-29 21:01 31.43899 -16.03621 38008 ft 475 kts 349°
2026-04-29 21:01 31.47214 -16.03665 38004 ft 480 kts
2026-04-29 21:02 31.50486 -16.02785 38007 ft 484 kts 18°
2026-04-29 21:02 31.56869 -16.00352 38004 ft 481 kts
2026-04-29 21:03 31.63502 -15.99305 38001 ft 481 kts
2026-04-29 21:03 31.70119 -15.98173 38000 ft 481 kts
2026-04-29 21:04 31.76737 -15.96948 38001 ft 481 kts
2026-04-29 21:04 31.83341 -15.95722 38001 ft 481 kts
2026-04-29 21:05 31.89917 -15.94501 38000 ft 480 kts
2026-04-29 21:05 31.96505 -15.93275 38000 ft 479 kts
2026-04-29 21:06 32.03078 -15.92056 38000 ft 479 kts
2026-04-29 21:06 32.09681 -15.90829 38000 ft 479 kts
2026-04-29 21:07 32.16236 -15.89607 38000 ft 479 kts
2026-04-29 21:07 32.22817 -15.88380 38011 ft 479 kts
2026-04-29 21:08 32.29412 -15.87148 38019 ft 479 kts
2026-04-29 21:08 32.36004 -15.85913 38019 ft 479 kts
2026-04-29 21:09 32.42551 -15.84686 38020 ft 479 kts
2026-04-29 21:09 32.49134 -15.83452 38021 ft 479 kts
2026-04-29 21:10 32.55732 -15.82213 38021 ft 479 kts
2026-04-29 21:10 32.62314 -15.80974 38020 ft 479 kts
2026-04-29 21:11 32.68920 -15.79729 38022 ft 480 kts
2026-04-29 21:11 32.75476 -15.78488 38012 ft 480 kts
2026-04-29 21:12 32.82089 -15.77240 38010 ft 480 kts
2026-04-29 21:12 32.88698 -15.75986 38017 ft 480 kts
2026-04-29 21:13 32.95271 -15.74741 38019 ft 480 kts
2026-04-29 21:13 33.01871 -15.73485 38018 ft 481 kts
2026-04-29 21:14 33.08470 -15.72231 38018 ft 480 kts
2026-04-29 21:14 33.15079 -15.70973 38018 ft 480 kts
2026-04-29 21:15 33.21690 -15.69712 38020 ft 480 kts
2026-04-29 21:15 33.28308 -15.68448 38019 ft 480 kts
2026-04-29 21:16 33.34858 -15.67192 38021 ft 479 kts
2026-04-29 21:16 33.41447 -15.65948 38017 ft 479 kts
2026-04-29 21:17 33.48093 -15.65269 38021 ft 478 kts
2026-04-29 21:17 33.54735 -15.64653 38021 ft 478 kts
2026-04-29 21:18 33.61362 -15.64033 38020 ft 478 kts
2026-04-29 21:18 33.68015 -15.63408 38020 ft 478 kts
2026-04-29 21:19 33.74652 -15.62782 38020 ft 478 kts
2026-04-29 21:19 33.81251 -15.62155 38020 ft 478 kts
2026-04-29 21:20 33.87895 -15.61521 38021 ft 478 kts
2026-04-29 21:20 33.94523 -15.60890 38020 ft 478 kts
2026-04-29 21:21 34.01173 -15.60261 38019 ft 478 kts
2026-04-29 21:21 34.07820 -15.59635 38019 ft 479 kts
2026-04-29 21:22 34.14478 -15.59001 38020 ft 479 kts
2026-04-29 21:22 34.21078 -15.58374 38022 ft 479 kts
2026-04-29 21:23 34.27730 -15.57744 38022 ft 479 kts
2026-04-29 21:23 34.34376 -15.57112 38019 ft 479 kts
2026-04-29 21:24 34.41020 -15.56485 38020 ft 479 kts
2026-04-29 21:24 34.47630 -15.55852 38012 ft 479 kts
2026-04-29 21:25 34.54325 -15.55207 38010 ft 479 kts
2026-04-29 21:25 34.60941 -15.54568 38011 ft 479 kts
2026-04-29 21:26 34.67601 -15.53927 38010 ft 479 kts
2026-04-29 21:26 34.74215 -15.53290 38010 ft 479 kts
2026-04-29 21:27 34.79742 -15.52752 38010 ft 479 kts
2026-04-29 21:27 34.87511 -15.52003 38010 ft 479 kts
2026-04-29 21:28 34.94164 -15.51359 38010 ft 479 kts
2026-04-29 21:28 35.00764 -15.50721 38009 ft 479 kts
2026-04-29 21:29 35.07413 -15.50072 38010 ft 479 kts
2026-04-29 21:29 35.14053 -15.49429 38011 ft 478 kts
2026-04-29 21:30 35.20700 -15.48785 38010 ft 479 kts
2026-04-29 21:30 35.27360 -15.48140 38002 ft 479 kts
2026-04-29 21:31 35.34011 -15.47492 38000 ft 479 kts
2026-04-29 21:31 35.40655 -15.46845 38001 ft 479 kts
2026-04-29 21:32 35.47300 -15.46191 38000 ft 478 kts
2026-04-29 21:32 35.53938 -15.45535 38000 ft 478 kts
2026-04-29 21:33 35.60566 -15.44879 38001 ft 478 kts
2026-04-29 21:33 35.67208 -15.44226 38000 ft 479 kts
2026-04-29 21:34 35.73853 -15.43566 38001 ft 479 kts
2026-04-29 21:34 35.80504 -15.42909 38000 ft 479 kts
2026-04-29 21:35 35.87151 -15.42254 38001 ft 479 kts
2026-04-29 21:35 35.93758 -15.41598 38000 ft 479 kts
2026-04-29 21:36 36.00402 -15.40940 37993 ft 479 kts
2026-04-29 21:36 36.05929 -15.40388 37990 ft 478 kts
2026-04-29 21:37 36.12570 -15.39731 37991 ft 477 kts
2026-04-29 21:37 36.19197 -15.39088 37991 ft 477 kts
2026-04-29 21:38 36.25826 -15.38732 37990 ft 476 kts 359°
2026-04-29 21:38 36.32446 -15.38403 37990 ft 476 kts 359°
2026-04-29 21:39 36.39084 -15.38078 37991 ft 477 kts 359°
2026-04-29 21:39 36.45667 -15.37753 37990 ft 476 kts 359°
2026-04-29 21:40 36.52293 -15.37433 37991 ft 476 kts 359°
2026-04-29 21:40 36.58917 -15.37106 37990 ft 476 kts 359°
2026-04-29 21:41 36.65529 -15.36781 37990 ft 475 kts 359°
2026-04-29 21:41 36.72144 -15.36457 37990 ft 475 kts 359°
2026-04-29 21:42 36.78750 -15.36125 37983 ft 475 kts 359°
2026-04-29 21:42 36.85363 -15.35793 37982 ft 475 kts 359°
2026-04-29 21:43 36.91921 -15.35465 37980 ft 474 kts 359°
2026-04-29 21:43 36.98514 -15.35139 37982 ft 474 kts 359°
2026-04-29 21:44 37.05122 -15.34814 37980 ft 474 kts 359°
2026-04-29 21:44 37.11715 -15.34485 37980 ft 474 kts 359°
2026-04-29 21:45 37.18310 -15.34151 37979 ft 473 kts 359°
2026-04-29 21:45 37.24850 -15.33823 37980 ft 473 kts 359°
2026-04-29 21:46 37.31436 -15.33494 37981 ft 473 kts 359°
2026-04-29 21:46 37.38017 -15.33163 37980 ft 473 kts 359°
2026-04-29 21:47 37.44594 -15.32837 37980 ft 473 kts 359°
2026-04-29 21:47 37.51172 -15.32513 37979 ft 473 kts 359°
2026-04-29 21:48 37.57745 -15.32193 37980 ft 472 kts 359°
2026-04-29 21:48 37.64328 -15.31861 37980 ft 472 kts 359°
2026-04-29 21:49 37.70892 -15.31527 37979 ft 472 kts 359°
2026-04-29 21:49 37.77453 -15.31191 37979 ft 472 kts 359°
2026-04-29 21:50 37.84033 -15.30856 37980 ft 472 kts 359°
2026-04-29 21:50 37.90606 -15.30520 37981 ft 472 kts 359°
2026-04-29 21:51 37.97133 -15.30187 37980 ft 472 kts 359°
2026-04-29 21:51 38.07001 -15.29682 37980 ft 470 kts 358°
2026-04-29 21:52 38.13529 -15.29347 37960 ft 469 kts 358°
2026-04-29 21:52 38.20005 -15.29019 37973 ft 469 kts 358°
2026-04-29 21:53 38.26517 -15.28687 37979 ft 468 kts 358°
2026-04-29 21:53 38.33027 -15.28352 37977 ft 468 kts 358°
2026-04-29 21:54 38.39538 -15.28017 37978 ft 468 kts 358°
2026-04-29 21:54 38.46009 -15.27680 37979 ft 467 kts 358°
2026-04-29 21:55 38.52505 -15.27346 37977 ft 466 kts 358°
2026-04-29 21:55 38.58994 -15.27008 37960 ft 466 kts 358°
2026-04-29 21:56 38.65482 -15.26671 37967 ft 466 kts 358°
2026-04-29 21:56 38.71967 -15.26328 37977 ft 465 kts 358°
2026-04-29 21:57 38.78439 -15.25995 37972 ft 465 kts 358°
2026-04-29 21:57 38.84863 -15.25657 37967 ft 464 kts 358°
2026-04-29 21:58 38.91326 -15.25312 37959 ft 463 kts 358°
2026-04-29 21:58 38.97773 -15.24974 37938 ft 463 kts 358°
2026-04-29 21:59 39.04213 -15.24634 37935 ft 462 kts 358°
2026-04-29 21:59 39.10646 -15.24298 37949 ft 462 kts 358°
2026-04-29 22:00 39.17019 -15.23962 37956 ft 461 kts 358°
2026-04-29 22:00 39.23441 -15.23623 37956 ft 461 kts 358°
2026-04-29 22:01 39.29845 -15.23287 37969 ft 460 kts 358°
2026-04-29 22:01 39.36252 -15.22941 37956 ft 460 kts 358°
2026-04-29 22:02 39.42606 -15.22605 37957 ft 459 kts 358°
2026-04-29 22:02 39.48991 -15.22261 37961 ft 458 kts 358°
2026-04-29 22:03 39.55368 -15.21921 37967 ft 458 kts 358°
2026-04-29 22:03 39.61739 -15.21582 37965 ft 458 kts 358°
2026-04-29 22:04 39.68106 -15.21238 37964 ft 457 kts 358°
2026-04-29 22:04 39.74467 -15.20897 37964 ft 457 kts 358°
2026-04-29 22:05 39.80831 -15.20557 37966 ft 457 kts 358°
2026-04-29 22:06 39.90322 -15.20035 37961 ft 457 kts 358°
2026-04-29 22:06 39.96678 -15.19693 37968 ft 457 kts 358°
2026-04-29 22:07 40.03031 -15.19349 37950 ft 456 kts 358°
2026-04-29 22:07 40.09357 -15.19004 37941 ft 454 kts 358°
2026-04-29 22:08 40.15675 -15.18662 37933 ft 454 kts 358°
2026-04-29 22:08 40.21957 -15.18320 37931 ft 453 kts 358°
2026-04-29 22:09 40.28261 -15.17975 37931 ft 453 kts 358°
2026-04-29 22:09 40.34573 -15.17634 37930 ft 453 kts 358°
2026-04-29 22:10 40.40881 -15.17295 37931 ft 453 kts 358°
2026-04-29 22:10 40.47184 -15.16948 37931 ft 453 kts 358°
2026-04-29 22:11 40.53498 -15.16603 37931 ft 453 kts 358°
2026-04-29 22:11 40.59756 -15.16255 37934 ft 453 kts 358°
2026-04-29 22:12 40.66057 -15.15908 37940 ft 453 kts 358°
2026-04-29 22:12 40.72367 -15.15560 37946 ft 453 kts 358°
2026-04-29 22:13 40.78669 -15.15216 37960 ft 453 kts 358°
2026-04-29 22:13 40.84963 -15.14866 37963 ft 453 kts 358°
2026-04-29 22:14 40.91267 -15.14516 37958 ft 453 kts 358°
2026-04-29 22:14 40.97565 -15.14155 37964 ft 453 kts 358°
2026-04-29 22:15 41.03831 -15.13801 37961 ft 453 kts 358°
2026-04-29 22:15 41.10133 -15.13450 37971 ft 453 kts 358°
2026-04-29 22:16 41.16430 -15.13098 37950 ft 452 kts 358°
2026-04-29 22:16 41.22724 -15.12740 37955 ft 452 kts 358°
2026-04-29 22:17 41.27956 -15.12442 37941 ft 452 kts 358°
2026-04-29 22:17 41.34245 -15.12082 37942 ft 452 kts 358°
2026-04-29 22:18 41.40553 -15.11724 37943 ft 452 kts 359°
2026-04-29 22:18 41.46851 -15.11368 37940 ft 452 kts 358°
2026-04-29 22:19 41.53097 -15.11003 37941 ft 452 kts 359°
2026-04-29 22:19 41.59400 -15.10649 37940 ft 452 kts 359°
2026-04-29 22:20 41.65664 -15.10290 37940 ft 452 kts 359°
2026-04-29 22:20 41.71948 -15.09937 37938 ft 452 kts 358°
2026-04-29 22:21 41.78238 -15.09584 37948 ft 452 kts 358°
2026-04-29 22:21 41.84539 -15.09228 37951 ft 452 kts 358°
2026-04-29 22:22 41.90799 -15.08868 37951 ft 452 kts 359°
2026-04-29 22:22 41.97100 -15.08502 37954 ft 452 kts 359°
2026-04-29 22:23 42.03280 -15.06654 37954 ft 460 kts 18°
2026-04-29 22:23 42.09238 -15.03463 37954 ft 460 kts 18°
2026-04-29 22:24 42.15241 -15.00252 37949 ft 460 kts 18°
2026-04-29 22:24 42.21168 -14.97115 37948 ft 460 kts 18°
2026-04-29 22:25 42.27130 -14.93946 37964 ft 460 kts 18°
2026-04-29 22:25 42.33095 -14.90774 37956 ft 460 kts 18°
2026-04-29 22:26 42.39061 -14.87591 37943 ft 461 kts 18°
2026-04-29 22:26 42.45033 -14.84398 37941 ft 461 kts 18°
2026-04-29 22:27 42.50999 -14.81204 37929 ft 460 kts 18°
2026-04-29 22:27 42.56922 -14.78026 37933 ft 460 kts 18°
2026-04-29 22:28 42.62886 -14.74822 37932 ft 460 kts 18°
2026-04-29 22:28 42.68866 -14.71600 37930 ft 460 kts 18°
2026-04-29 22:29 42.74794 -14.68398 37931 ft 460 kts 18°
2026-04-29 22:29 42.80753 -14.65173 37929 ft 460 kts 18°
2026-04-29 22:30 42.86717 -14.61939 37931 ft 460 kts 18°
2026-04-29 22:30 42.92665 -14.58705 37930 ft 460 kts 18°
2026-04-29 22:31 42.98618 -14.55463 37930 ft 460 kts 18°
2026-04-29 22:31 43.04567 -14.52217 37929 ft 460 kts 18°
2026-04-29 22:32 43.10510 -14.48964 37931 ft 460 kts 18°
2026-04-29 22:32 43.16424 -14.45727 37931 ft 460 kts 18°
2026-04-29 22:33 43.22365 -14.42467 37931 ft 460 kts 18°
2026-04-29 22:33 43.28318 -14.39199 37930 ft 460 kts 18°
2026-04-29 22:34 43.34268 -14.35925 37931 ft 460 kts 18°
2026-04-29 22:34 43.40174 -14.32660 37933 ft 460 kts 18°
2026-04-29 22:35 43.46112 -14.29371 37931 ft 460 kts 18°
2026-04-29 22:35 43.52053 -14.26075 37930 ft 460 kts 18°
2026-04-29 22:36 43.58037 -14.22769 37931 ft 459 kts 18°
2026-04-29 22:36 43.63939 -14.19494 37931 ft 459 kts 18°
2026-04-29 22:37 43.69875 -14.16175 37930 ft 460 kts 19°
2026-04-29 22:37 43.75808 -14.12850 37931 ft 460 kts 18°
2026-04-29 22:38 43.81737 -14.09533 37931 ft 459 kts 18°
2026-04-29 22:38 43.87665 -14.06210 37955 ft 460 kts 18°
2026-04-29 22:39 43.93593 -14.02865 37985 ft 460 kts 19°
2026-04-29 22:39 43.99471 -13.99512 37989 ft 460 kts 19°
2026-04-29 22:40 44.05404 -13.96143 37987 ft 459 kts 19°
2026-04-29 22:40 44.11321 -13.92777 37964 ft 459 kts 18°
2026-04-29 22:41 44.17257 -13.89452 37955 ft 459 kts 18°
2026-04-29 22:41 44.23189 -13.86056 37954 ft 460 kts 19°
2026-04-29 22:42 44.29109 -13.82671 37951 ft 460 kts 19°
2026-04-29 22:42 44.35048 -13.79275 37954 ft 461 kts 19°
2026-04-29 22:43 44.40958 -13.75884 37959 ft 461 kts 19°
2026-04-29 22:43 44.46891 -13.72460 37966 ft 461 kts 19°
2026-04-29 22:44 44.52825 -13.69057 37953 ft 462 kts 19°
2026-04-29 22:44 44.58781 -13.65652 37967 ft 462 kts 19°
2026-04-29 22:45 44.64706 -13.62241 37960 ft 463 kts 19°
2026-04-29 22:45 44.70660 -13.58791 37976 ft 463 kts 19°
2026-04-29 22:46 44.76640 -13.55319 37979 ft 464 kts 19°
2026-04-29 22:46 44.82623 -13.51844 37967 ft 464 kts 19°
2026-04-29 22:47 44.88564 -13.48371 37978 ft 465 kts 20°
2026-04-29 22:47 44.94551 -13.44863 37973 ft 465 kts 20°
2026-04-29 22:48 45.00571 -13.41521 37966 ft 463 kts 13°
2026-04-29 22:48 45.06827 -13.39321 37969 ft 462 kts 11°
2026-04-29 22:49 45.13078 -13.37178 37971 ft 463 kts 11°
2026-04-29 22:49 45.19304 -13.35028 37978 ft 463 kts 11°
2026-04-29 22:50 45.25574 -13.32866 37964 ft 463 kts 11°
2026-04-29 22:50 45.31847 -13.30686 37977 ft 463 kts 11°
2026-04-29 22:51 45.38120 -13.28501 37971 ft 463 kts 11°
2026-04-29 22:51 45.47478 -13.25241 37978 ft 464 kts 11°
2026-04-29 22:52 45.53759 -13.23037 37979 ft 464 kts 11°
2026-04-29 22:52 45.60041 -13.20836 37980 ft 464 kts 11°
2026-04-29 22:53 45.66277 -13.18613 37980 ft 464 kts 11°
2026-04-29 22:53 45.72564 -13.16403 37980 ft 464 kts 11°
2026-04-29 22:54 45.78850 -13.14185 37981 ft 465 kts 11°
2026-04-29 22:54 45.85137 -13.11965 37980 ft 465 kts 11°
2026-04-29 22:55 45.90366 -13.10127 37979 ft 465 kts 11°
2026-04-29 22:55 45.97686 -13.07530 37987 ft 465 kts 11°
2026-04-29 22:56 46.02965 -13.05650 37990 ft 466 kts 12°
2026-04-29 22:56 46.09229 -13.03409 37990 ft 467 kts 12°
2026-04-29 22:57 46.16615 -13.00763 37991 ft 467 kts 12°
2026-04-29 22:57 46.21863 -12.98873 37990 ft 468 kts 12°
2026-04-29 22:58 46.28190 -12.96607 37990 ft 467 kts 12°
2026-04-29 22:58 46.34507 -12.94335 37993 ft 468 kts 12°
2026-04-29 22:59 46.40833 -12.92059 38000 ft 468 kts 12°
2026-04-29 22:59 46.47116 -12.89782 38000 ft 468 kts 13°
2026-04-29 23:00 46.53448 -12.87488 38000 ft 469 kts 13°
2026-04-29 23:00 46.59778 -12.85184 38001 ft 469 kts 13°
2026-04-29 23:01 46.66112 -12.82871 38002 ft 469 kts 13°
2026-04-29 23:01 46.72419 -12.80570 38009 ft 469 kts 13°
2026-04-29 23:02 46.78737 -12.78305 38009 ft 469 kts 13°
2026-04-29 23:02 46.85075 -12.75986 38010 ft 469 kts 13°
2026-04-29 23:03 46.91410 -12.73666 38011 ft 469 kts 13°
2026-04-29 23:03 46.97751 -12.71329 38013 ft 469 kts 13°
2026-04-29 23:04 47.04086 -12.68981 38019 ft 469 kts 14°
2026-04-29 23:04 47.10423 -12.66628 38019 ft 469 kts 14°
2026-04-29 23:05 47.16761 -12.64271 38019 ft 469 kts 14°
2026-04-29 23:05 47.23090 -12.61913 38019 ft 469 kts 14°
2026-04-29 23:06 47.29430 -12.59551 38030 ft 469 kts 14°
2026-04-29 23:06 47.35723 -12.57198 38029 ft 470 kts 14°
2026-04-29 23:07 47.42065 -12.54819 38030 ft 470 kts 14°
2026-04-29 23:07 47.48417 -12.52432 38028 ft 470 kts 14°
2026-04-29 23:08 47.54767 -12.50040 38034 ft 470 kts 15°
2026-04-29 23:08 47.61108 -12.47634 38039 ft 470 kts 15°
2026-04-29 23:09 47.67449 -12.45238 38041 ft 470 kts 15°
2026-04-29 23:09 47.73792 -12.42824 38041 ft 471 kts 15°
2026-04-29 23:10 47.80090 -12.40429 38046 ft 470 kts 15°
2026-04-29 23:10 47.86427 -12.38001 38049 ft 468 kts 15°
2026-04-29 23:11 47.92736 -12.35596 38050 ft 467 kts 15°
2026-04-29 23:11 47.99039 -12.33178 38050 ft 468 kts 15°
2026-04-29 23:12 48.05339 -12.30757 38058 ft 467 kts 15°
2026-04-29 23:12 48.11623 -12.28320 38060 ft 467 kts 15°
2026-04-29 23:13 48.17938 -12.25881 38061 ft 467 kts 15°
2026-04-29 23:13 48.24236 -12.23441 38061 ft 467 kts 15°
2026-04-29 23:14 48.30530 -12.20997 38066 ft 467 kts 16°
2026-04-29 23:14 48.36772 -12.18569 38052 ft 466 kts 16°
2026-04-29 23:15 48.43060 -12.16109 38051 ft 466 kts 16°
2026-04-29 23:15 48.49338 -12.13660 38058 ft 465 kts 16°
2026-04-29 23:16 48.55600 -12.11199 38060 ft 465 kts 16°
2026-04-29 23:16 48.61869 -12.08734 38060 ft 465 kts 16°
2026-04-29 23:17 48.68103 -12.06274 38060 ft 464 kts 16°
2026-04-29 23:17 48.74357 -12.03801 38064 ft 464 kts 16°
2026-04-29 23:18 48.80592 -12.01320 38070 ft 463 kts 17°
2026-04-29 23:18 48.86409 -11.97350 38060 ft 458 kts 36°
2026-04-29 23:19 48.91614 -11.91723 38068 ft 459 kts 38°
2026-04-29 23:19 48.96808 -11.86054 38069 ft 459 kts 38°
2026-04-29 23:20 49.01986 -11.80373 38074 ft 458 kts 41°
2026-04-29 23:20 49.06141 -11.73194 38078 ft 449 kts 62°
2026-04-29 23:21 49.08624 -11.64723 38092 ft 446 kts 70°
2026-04-29 23:21 49.10997 -11.55774 38078 ft 445 kts 70°
2026-04-29 23:22 49.13358 -11.47016 38077 ft 445 kts 70°
2026-04-29 23:22 49.15716 -11.38258 38079 ft 445 kts 70°
2026-04-29 23:23 49.18052 -11.29506 38078 ft 445 kts 70°
2026-04-29 23:23 49.20397 -11.20719 38087 ft 445 kts 70°
2026-04-29 23:24 49.22720 -11.11993 38085 ft 445 kts 71°
2026-04-29 23:24 49.25047 -11.03202 38085 ft 446 kts 71°
2026-04-29 23:25 49.27374 -10.94388 38090 ft 446 kts 71°
2026-04-29 23:25 49.29688 -10.85565 38089 ft 446 kts 71°
2026-04-29 23:26 49.31978 -10.76813 38080 ft 445 kts 71°
2026-04-29 23:26 49.34281 -10.67983 38079 ft 445 kts 71°
2026-04-29 23:27 49.36574 -10.59154 38078 ft 444 kts 72°
2026-04-29 23:27 49.38854 -10.50334 38078 ft 444 kts 72°
2026-04-29 23:28 49.41125 -10.41505 38084 ft 444 kts 72°
2026-04-29 23:28 49.43395 -10.32678 38077 ft 444 kts 72°
2026-04-29 23:29 49.45645 -10.23896 38078 ft 443 kts 72°
2026-04-29 23:29 49.47893 -10.15072 38078 ft 443 kts 72°
2026-04-29 23:30 49.50131 -10.06248 38078 ft 442 kts 72°
2026-04-29 23:30 49.52362 -9.97432 38081 ft 441 kts 72°
2026-04-29 23:31 49.54578 -9.88608 38083 ft 442 kts 73°
2026-04-29 23:31 49.56789 -9.79772 38084 ft 442 kts 73°
2026-04-29 23:32 49.58985 -9.70978 38082 ft 442 kts 73°
2026-04-29 23:32 49.61197 -9.62101 38084 ft 442 kts 73°
2026-04-29 23:33 49.63402 -9.53227 38089 ft 443 kts 73°
2026-04-29 23:33 49.65596 -9.44337 38087 ft 443 kts 73°
2026-04-29 23:34 49.67781 -9.35445 38087 ft 443 kts 73°
2026-04-29 23:34 49.69962 -9.26536 38084 ft 444 kts 73°
2026-04-29 23:35 49.72129 -9.17655 38081 ft 444 kts 73°
2026-04-29 23:35 49.73936 -9.10167 38082 ft 444 kts 73°
2026-04-29 23:36 49.76407 -8.99935 38082 ft 444 kts 74°
2026-04-29 23:36 49.78209 -8.92483 38082 ft 444 kts 73°
2026-04-29 23:37 49.80370 -8.83526 38096 ft 444 kts 74°
2026-04-29 23:37 49.82517 -8.74553 38116 ft 444 kts 74°
2026-04-29 23:38 49.84656 -8.65554 38119 ft 444 kts 74°
2026-04-29 23:38 49.86776 -8.56570 38111 ft 444 kts 74°
2026-04-29 23:39 49.88887 -8.47623 38111 ft 444 kts 74°
2026-04-29 23:39 49.91005 -8.38626 38118 ft 444 kts 75°
2026-04-29 23:40 49.93123 -8.29624 38115 ft 444 kts 75°
2026-04-29 23:40 49.95231 -8.20608 38119 ft 444 kts 75°
2026-04-29 23:41 49.97326 -8.11585 38120 ft 444 kts 75°
2026-04-29 23:41 49.99436 -8.02586 38118 ft 445 kts 72°
2026-04-29 23:42 50.02649 -7.94242 38123 ft 454 kts 59°
2026-04-29 23:42 50.06369 -7.86342 38120 ft 454 kts 58°
2026-04-29 23:43 50.10100 -7.78347 38121 ft 453 kts 59°
2026-04-29 23:43 50.13776 -7.70418 38114 ft 453 kts 59°
2026-04-29 23:44 50.17462 -7.62436 38112 ft 452 kts 59°
2026-04-29 23:44 50.21136 -7.54459 38103 ft 451 kts 59°
2026-04-29 23:45 50.24794 -7.46490 38100 ft 451 kts 59°
2026-04-29 23:45 50.28421 -7.38573 38098 ft 450 kts 59°
2026-04-29 23:46 50.32055 -7.30606 38098 ft 449 kts 59°
2026-04-29 23:46 50.35682 -7.22640 38103 ft 448 kts 59°
2026-04-29 23:47 50.39291 -7.14676 38099 ft 447 kts 59°
2026-04-29 23:47 50.42863 -7.06785 38092 ft 447 kts 59°
2026-04-29 23:48 50.46450 -6.98823 38086 ft 446 kts 59°
2026-04-29 23:48 50.50029 -6.90868 38093 ft 445 kts 59°
2026-04-29 23:49 50.53601 -6.82907 38095 ft 445 kts 59°
2026-04-29 23:49 50.57152 -6.74945 38094 ft 444 kts 59°
2026-04-29 23:50 50.60701 -6.66988 38090 ft 443 kts 59°
2026-04-29 23:51 50.65980 -6.55094 38091 ft 444 kts 59°
2026-04-29 23:51 50.69511 -6.47101 38093 ft 443 kts 59°
2026-04-29 23:52 50.73036 -6.39114 38094 ft 443 kts 59°
2026-04-29 23:52 50.76553 -6.31112 38085 ft 443 kts 59°
2026-04-29 23:53 50.80061 -6.23105 38086 ft 443 kts 59°
2026-04-29 23:53 50.83539 -6.15142 38094 ft 443 kts 60°
2026-04-29 23:54 50.87034 -6.07116 38099 ft 443 kts 60°
2026-04-29 23:54 50.90521 -5.99083 38100 ft 442 kts 60°
2026-04-29 23:55 50.93997 -5.91051 38116 ft 442 kts 59°
2026-04-29 23:55 50.97472 -5.82996 38119 ft 441 kts 60°
2026-04-29 23:56 51.00932 -5.74946 38120 ft 442 kts 60°
2026-04-29 23:56 51.04374 -5.66918 38120 ft 442 kts 60°
2026-04-29 23:57 51.07832 -5.58827 38123 ft 441 kts 60°
2026-04-29 23:57 51.11278 -5.50741 38130 ft 441 kts 60°
2026-04-29 23:58 51.14722 -5.42637 38130 ft 441 kts 60°
2026-04-29 23:58 51.18155 -5.34527 38131 ft 441 kts 60°
2026-04-29 23:59 51.21557 -5.26464 38134 ft 441 kts 60°
2026-04-29 23:59 51.24980 -5.18335 38124 ft 441 kts 60°
2026-04-30 00:00 51.28382 -5.10207 38126 ft 441 kts 60°
2026-04-30 00:00 51.31673 -5.01947 38125 ft 437 kts 67°
2026-04-30 00:01 51.34174 -4.93130 38153 ft 435 kts 70°
2026-04-30 00:01 51.36620 -4.84271 38158 ft 434 kts 70°
2026-04-30 00:02 51.39062 -4.75419 38162 ft 434 kts 70°
2026-04-30 00:02 51.41498 -4.66576 38166 ft 434 kts 70°
2026-04-30 00:03 51.43914 -4.57768 38171 ft 433 kts 70°
2026-04-30 00:03 51.46321 -4.48942 38171 ft 433 kts 70°
2026-04-30 00:04 51.48739 -4.40063 38176 ft 432 kts 70°
2026-04-30 00:04 51.51134 -4.31232 38179 ft 432 kts 70°
2026-04-30 00:05 51.53495 -4.22501 38181 ft 432 kts 70°
2026-04-30 00:05 51.55910 -4.13524 38181 ft 429 kts 70°
2026-04-30 00:06 51.58254 -4.04782 37966 ft 424 kts 70°
2026-04-30 00:06 51.59424 -4.00405 37036 ft 429 kts 70°
2026-04-30 00:06 51.60609 -3.95948 36031 ft 434 kts 70°
2026-04-30 00:06 51.61802 -3.91461 35051 ft 437 kts 70°
2026-04-30 00:07 51.63007 -3.86929 34108 ft 439 kts 70°
2026-04-30 00:07 51.64199 -3.82434 33303 ft 438 kts 70°
2026-04-30 00:07 51.65390 -3.77935 32580 ft 434 kts 70°
2026-04-30 00:07 51.66570 -3.73482 31884 ft 430 kts 70°
2026-04-30 00:08 51.67735 -3.69072 31210 ft 425 kts 70°
2026-04-30 00:08 51.68884 -3.64701 30535 ft 421 kts 70°
2026-04-30 00:08 51.70015 -3.60366 29851 ft 417 kts 70°
2026-04-30 00:08 51.71147 -3.56093 29179 ft 413 kts 69°
2026-04-30 00:09 51.72309 -3.51888 28579 ft 407 kts 69°
2026-04-30 00:09 51.73453 -3.47752 27929 ft 402 kts 69°
2026-04-30 00:09 51.74586 -3.43647 27275 ft 398 kts 69°
2026-04-30 00:09 51.75704 -3.39595 26639 ft 393 kts 69°
2026-04-30 00:10 51.76810 -3.35578 26004 ft 389 kts 69°
2026-04-30 00:10 51.77915 -3.31562 25353 ft 384 kts 70°
2026-04-30 00:10 51.78973 -3.27701 24788 ft 378 kts 70°
2026-04-30 00:10 51.80031 -3.23829 24145 ft 375 kts 70°
2026-04-30 00:11 51.81053 -3.19968 23511 ft 370 kts 71°
2026-04-30 00:11 51.82027 -3.16138 22928 ft 366 kts 71°
2026-04-30 00:11 51.82983 -3.12348 22321 ft 362 kts 72°
2026-04-30 00:11 51.83932 -3.08583 21683 ft 359 kts 72°
2026-04-30 00:12 51.84869 -3.04856 21062 ft 356 kts 72°
2026-04-30 00:12 51.85795 -3.01174 20462 ft 352 kts 72°
2026-04-30 00:12 51.86715 -2.97520 19853 ft 349 kts 72°
2026-04-30 00:12 51.87624 -2.93903 19297 ft 344 kts 72°
2026-04-30 00:13 51.88521 -2.90334 18699 ft 341 kts 72°
2026-04-30 00:13 51.89406 -2.86797 18200 ft 336 kts 72°
2026-04-30 00:13 51.90274 -2.83318 17784 ft 329 kts 72°
2026-04-30 00:13 51.91120 -2.79927 17389 ft 321 kts 73°
2026-04-30 00:14 51.91942 -2.76629 17027 ft 313 kts 72°
2026-04-30 00:14 51.92740 -2.73422 16679 ft 306 kts 73°
2026-04-30 00:14 51.93532 -2.70230 16332 ft 305 kts 72°
2026-04-30 00:14 51.94322 -2.67040 16007 ft 304 kts 72°
2026-04-30 00:15 51.95108 -2.63867 15699 ft 302 kts 72°
2026-04-30 00:15 51.95983 -2.60770 15390 ft 304 kts 63°
2026-04-30 00:15 51.97358 -2.58117 15069 ft 310 kts 49°
2026-04-30 00:15 51.98417 -2.56497 14838 ft 310 kts 48°
2026-04-30 00:16 52.00001 -2.54120 14487 ft 310 kts 48°
2026-04-30 00:16 52.01555 -2.51769 14152 ft 309 kts 48°
2026-04-30 00:16 52.03120 -2.49381 13818 ft 308 kts 48°
2026-04-30 00:16 52.04674 -2.47001 13497 ft 306 kts 48°
2026-04-30 00:17 52.06328 -2.44786 13169 ft 309 kts 39°
2026-04-30 00:17 52.08104 -2.42915 12827 ft 310 kts 37°
2026-04-30 00:17 52.09954 -2.41016 12448 ft 310 kts 37°
2026-04-30 00:17 52.11787 -2.39133 12058 ft 311 kts 37°
2026-04-30 00:18 52.13612 -2.37247 11666 ft 311 kts 37°
2026-04-30 00:18 52.15444 -2.35344 11273 ft 312 kts 37°
2026-04-30 00:18 52.17276 -2.33434 10877 ft 312 kts 37°
2026-04-30 00:18 52.19090 -2.31547 10495 ft 306 kts 37°
2026-04-30 00:19 52.20859 -2.29707 10253 ft 296 kts 37°
2026-04-30 00:19 52.22564 -2.27930 9944 ft 288 kts 38°
2026-04-30 00:19 52.24248 -2.26165 9515 ft 286 kts 38°
2026-04-30 00:19 52.25898 -2.24435 9098 ft 285 kts 38°
2026-04-30 00:20 52.27559 -2.22695 8695 ft 282 kts 38°
2026-04-30 00:20 52.29202 -2.20970 8299 ft 280 kts 38°
2026-04-30 00:20 52.30846 -2.19240 7924 ft 282 kts 38°
2026-04-30 00:20 52.32490 -2.17512 7556 ft 278 kts 38°
2026-04-30 00:21 52.34107 -2.15814 7192 ft 274 kts 39°
2026-04-30 00:21 52.35721 -2.14115 6899 ft 269 kts 39°
2026-04-30 00:21 52.37265 -2.12496 6731 ft 258 kts 39°
2026-04-30 00:21 52.38745 -2.10934 6580 ft 248 kts 39°
2026-04-30 00:22 52.40162 -2.09440 6364 ft 241 kts 39°
2026-04-30 00:22 52.41559 -2.07965 6101 ft 238 kts 40°
2026-04-30 00:22 52.42951 -2.06494 5791 ft 237 kts 40°
2026-04-30 00:22 52.44332 -2.05036 5505 ft 234 kts 40°
2026-04-30 00:23 52.45693 -2.03600 5228 ft 232 kts 40°
2026-04-30 00:23 52.47043 -2.02170 4934 ft 230 kts 40°
2026-04-30 00:23 52.48377 -2.00758 4649 ft 227 kts 40°
2026-04-30 00:23 52.49700 -1.99359 4354 ft 225 kts 41°
2026-04-30 00:24 52.51010 -1.97972 4054 ft 223 kts 41°
2026-04-30 00:24 52.52293 -1.96609 3790 ft 221 kts 42°
2026-04-30 00:24 52.53582 -1.95242 3496 ft 219 kts 42°
2026-04-30 00:24 52.54860 -1.93882 3212 ft 217 kts 42°
2026-04-30 00:25 52.56123 -1.92538 2942 ft 215 kts 42°
2026-04-30 00:25 52.57363 -1.91189 2665 ft 211 kts 45°
2026-04-30 00:25 52.58304 -1.89363 2493 ft 200 kts 70°
2026-04-30 00:25 52.58414 -1.87264 2465 ft 187 kts 107°
2026-04-30 00:26 52.57592 -1.85607 2467 ft 196 kts 147°
2026-04-30 00:26 52.56302 -1.85123 2529 ft 183 kts 169°
2026-04-30 00:26 52.55130 -1.84971 2465 ft 166 kts 161°
2026-04-30 00:26 52.54065 -1.84352 2249 ft 151 kts 146°
2026-04-30 00:27 52.53166 -1.83473 2010 ft 150 kts 141°
2026-04-30 00:27 52.52288 -1.82497 1784 ft 153 kts 141°
2026-04-30 00:27 52.51404 -1.81511 1564 ft 148 kts 142°
2026-04-30 00:27 52.50586 -1.80600 1366 ft 141 kts 142°
2026-04-30 00:28 52.49772 -1.79708 1153 ft 140 kts 143°
2026-04-30 00:28 52.48969 -1.78814 945 ft 139 kts 141°
2026-04-30 00:28 52.48179 -1.77897 776 ft 139 kts 145°
2026-04-30 00:28 52.47383 -1.77023 618 ft 138 kts 142°
2026-04-30 00:29 52.46600 -1.76142 436 ft 138 kts 145°
2026-04-30 00:29 52.45819 -1.75268 333 ft 127 kts 149°
2026-04-30 00:29 52.45236 -1.74633 334 ft 62 kts 144°
2026-04-30 00:29 52.45035 -1.74413 332 ft 21 kts 146°
2026-04-30 00:30 52.44947 -1.74248 331 ft 21 kts 67°
2026-04-30 00:30 52.44979 -1.73999 327 ft 23 kts 68°
2026-04-30 00:30 52.45043 -1.73801 329 ft 16 kts 91°
2026-04-30 00:30 52.45037 -1.73614 329 ft 4 kts 89°